PDA6110 UKWW-LIPI

Flight info

Callsign PDA6110
Flight time N/A
Altitude 36000
Route TAKET DCT GEMTO/N0453F360 DCT KARIL DCT VEBAL DCT AGLIB/N0453F370 DCT DIXUM DCT AIOSA DCT TOPNO
Aircraft A320/M-VD/A

Departure

Time 2026-04-22 11:08
Airport Vinnytsia/Gavyryshivka International Airport (UKWW)

Arrival

Time N/A
Airport Udine-Rivolto Air Base (LIPI)
Time Latitude Longitude Altitude Speed Heading
2026-04-22 10:58 49.24370 28.60652 972 ft 0 kts 229°
2026-04-22 11:03 49.24368 28.60649 972 ft 2 kts 229°
2026-04-22 11:04 49.24345 28.60635 977 ft 5 kts 184°
2026-04-22 11:04 49.24306 28.60675 975 ft 9 kts 131°
2026-04-22 11:04 49.24327 28.60761 978 ft 11 kts 52°
2026-04-22 11:04 49.24387 28.60864 978 ft 15 kts 46°
2026-04-22 11:05 49.24459 28.60989 980 ft 16 kts 49°
2026-04-22 11:05 49.24427 28.61143 975 ft 19 kts 139°
2026-04-22 11:05 49.24359 28.61235 978 ft 20 kts 140°
2026-04-22 11:05 49.24244 28.61388 978 ft 24 kts 138°
2026-04-22 11:06 49.24112 28.61575 983 ft 28 kts 138°
2026-04-22 11:06 49.23956 28.61789 968 ft 32 kts 138°
2026-04-22 11:06 49.23784 28.62024 977 ft 34 kts 139°
2026-04-22 11:06 49.23603 28.62271 978 ft 32 kts 138°
2026-04-22 11:07 49.23459 28.62439 969 ft 13 kts 152°
2026-04-22 11:07 49.23447 28.62479 968 ft 1 kts 354°
2026-04-22 11:07 49.23453 28.62468 968 ft 3 kts 319°
2026-04-22 11:07 49.23626 28.62234 977 ft 68 kts 319°
2026-04-22 11:08 49.24134 28.61540 977 ft 124 kts 318°
2026-04-22 11:08 49.24878 28.60547 1194 ft 148 kts 321°
2026-04-22 11:08 49.25661 28.59541 1910 ft 148 kts 322°
2026-04-22 11:08 49.26512 28.58489 2177 ft 171 kts 323°
2026-04-22 11:09 49.27488 28.57296 2567 ft 185 kts 323°
2026-04-22 11:09 49.28694 28.56508 2951 ft 205 kts
2026-04-22 11:09 49.30042 28.57454 3360 ft 233 kts 45°
2026-04-22 11:09 49.30725 28.59827 3726 ft 262 kts 85°
2026-04-22 11:10 49.30275 28.62527 4574 ft 271 kts 120°
2026-04-22 11:10 49.28874 28.64487 5365 ft 280 kts 154°
2026-04-22 11:10 49.26996 28.65321 6191 ft 284 kts 171°
2026-04-22 11:10 49.25021 28.65725 6978 ft 288 kts 175°
2026-04-22 11:11 49.23041 28.65463 7800 ft 287 kts 200°
2026-04-22 11:11 49.21246 28.64149 8622 ft 287 kts 216°
2026-04-22 11:11 49.19734 28.62169 9400 ft 287 kts 232°
2026-04-22 11:11 49.18711 28.59573 10141 ft 287 kts 247°
2026-04-22 11:12 49.17846 28.56691 10353 ft 310 kts 248°
2026-04-22 11:12 49.16946 28.53564 10487 ft 332 kts 249°
2026-04-22 11:12 49.16009 28.50249 10838 ft 345 kts 249°
2026-04-22 11:12 49.15050 28.46851 11385 ft 351 kts 249°
2026-04-22 11:13 49.14076 28.43409 11981 ft 356 kts 248°
2026-04-22 11:13 49.13085 28.39916 12542 ft 361 kts 248°
2026-04-22 11:13 49.12079 28.36378 13123 ft 366 kts 248°
2026-04-22 11:13 49.11054 28.32782 13677 ft 371 kts 248°
2026-04-22 11:14 49.10028 28.29195 14223 ft 375 kts 248°
2026-04-22 11:14 49.08977 28.25529 14766 ft 378 kts 248°
2026-04-22 11:14 49.07917 28.21835 15288 ft 382 kts 248°
2026-04-22 11:14 49.06846 28.18111 15794 ft 385 kts 248°
2026-04-22 11:15 49.05765 28.14361 16305 ft 388 kts 248°
2026-04-22 11:15 49.04672 28.10579 16837 ft 391 kts 247°
2026-04-22 11:15 49.03570 28.06778 17353 ft 394 kts 247°
2026-04-22 11:15 49.02450 28.02935 17885 ft 398 kts 247°
2026-04-22 11:16 49.01324 27.99063 18389 ft 401 kts 247°
2026-04-22 11:16 49.00192 27.95164 18838 ft 405 kts 247°
2026-04-22 11:16 48.99046 27.91231 19318 ft 408 kts 247°
2026-04-22 11:16 48.97895 27.87273 19780 ft 411 kts 247°
2026-04-22 11:17 48.96906 27.83191 20240 ft 413 kts 256°
2026-04-22 11:17 48.96290 27.78913 20692 ft 415 kts 260°
2026-04-22 11:17 48.95715 27.74602 21135 ft 418 kts 260°
2026-04-22 11:17 48.95127 27.70252 21563 ft 421 kts 259°
2026-04-22 11:18 48.94533 27.65879 21979 ft 423 kts 259°
2026-04-22 11:18 48.93935 27.61479 22380 ft 426 kts 259°
2026-04-22 11:18 48.93329 27.57046 22790 ft 429 kts 259°
2026-04-22 11:18 48.92718 27.52591 23189 ft 432 kts 259°
2026-04-22 11:19 48.92101 27.48108 23599 ft 435 kts 259°
2026-04-22 11:19 48.91479 27.43605 23976 ft 436 kts 259°
2026-04-22 11:19 48.90852 27.39087 24346 ft 437 kts 259°
2026-04-22 11:19 48.90220 27.34553 24700 ft 439 kts 259°
2026-04-22 11:20 48.89588 27.30014 25044 ft 440 kts 259°
2026-04-22 11:20 48.88953 27.25455 25378 ft 442 kts 259°
2026-04-22 11:20 48.88312 27.20879 25720 ft 443 kts 259°
2026-04-22 11:20 48.87667 27.16286 26066 ft 445 kts 259°
2026-04-22 11:21 48.87016 27.11688 26401 ft 447 kts 259°
2026-04-22 11:21 48.86360 27.07067 26753 ft 448 kts 259°
2026-04-22 11:21 48.85702 27.02431 27102 ft 450 kts 259°
2026-04-22 11:21 48.85041 26.97776 27439 ft 452 kts 259°
2026-04-22 11:22 48.84378 26.93115 27876 ft 451 kts 259°
2026-04-22 11:22 48.83714 26.88474 28379 ft 449 kts 259°
2026-04-22 11:22 48.83051 26.83850 28885 ft 447 kts 259°
2026-04-22 11:22 48.82390 26.79255 29408 ft 445 kts 259°
2026-04-22 11:23 48.81729 26.74678 29895 ft 443 kts 259°
2026-04-22 11:23 48.81067 26.70119 30353 ft 442 kts 259°
2026-04-22 11:23 48.80405 26.65566 30733 ft 441 kts 259°
2026-04-22 11:23 48.79753 26.61074 31094 ft 441 kts 259°
2026-04-22 11:24 48.79090 26.56539 31459 ft 441 kts 259°
2026-04-22 11:24 48.78423 26.52003 31824 ft 441 kts 259°
2026-04-22 11:24 48.77755 26.47472 32195 ft 440 kts 259°
2026-04-22 11:24 48.77083 26.42928 32570 ft 440 kts 259°
2026-04-22 11:25 48.76415 26.38400 32951 ft 440 kts 259°
2026-04-22 11:25 48.75747 26.33876 33328 ft 440 kts 259°
2026-04-22 11:25 48.75081 26.29371 33700 ft 440 kts 259°
2026-04-22 11:25 48.74407 26.24830 34044 ft 440 kts 259°
2026-04-22 11:26 48.73732 26.20317 34359 ft 439 kts 259°
2026-04-22 11:26 48.73053 26.15815 34638 ft 438 kts 258°
2026-04-22 11:26 48.72372 26.11308 34892 ft 439 kts 259°
2026-04-22 11:26 48.71689 26.06797 35139 ft 439 kts 258°
2026-04-22 11:27 48.71008 26.02291 35403 ft 439 kts 259°
2026-04-22 11:27 48.70327 25.97790 35653 ft 439 kts 259°
2026-04-22 11:27 48.69642 25.93283 35898 ft 439 kts 259°
2026-04-22 11:27 48.68952 25.88766 36046 ft 440 kts 258°
2026-04-22 11:28 48.68257 25.84228 36079 ft 445 kts 259°
2026-04-22 11:28 48.66840 25.74973 36083 ft 454 kts 259°
2026-04-22 11:29 48.65395 25.65650 36079 ft 456 kts 258°
2026-04-22 11:29 48.63948 25.56384 36075 ft 455 kts 258°
2026-04-22 11:30 48.62494 25.47069 36085 ft 456 kts 259°
2026-04-22 11:30 48.61020 25.37737 36091 ft 457 kts 258°
2026-04-22 11:31 48.59537 25.28411 36096 ft 457 kts 258°
2026-04-22 11:31 48.58060 25.19076 36107 ft 457 kts 259°
2026-04-22 11:32 48.56569 25.09730 36103 ft 457 kts 258°
2026-04-22 11:32 48.55069 25.00409 36099 ft 457 kts 257°
2026-04-22 11:33 48.53560 24.91101 36105 ft 457 kts 257°
2026-04-22 11:33 48.52043 24.81792 36111 ft 457 kts 259°
2026-04-22 11:34 48.50519 24.72488 36111 ft 457 kts 258°
2026-04-22 11:34 48.48991 24.63188 36110 ft 457 kts 258°
2026-04-22 11:35 48.47458 24.53892 36112 ft 456 kts 258°
2026-04-22 11:35 48.45920 24.44608 36102 ft 456 kts 257°
2026-04-22 11:36 48.44364 24.35331 36104 ft 457 kts 258°
2026-04-22 11:36 48.42794 24.26050 36098 ft 458 kts 258°
2026-04-22 11:37 48.41221 24.16760 36104 ft 458 kts 258°
2026-04-22 11:37 48.39649 24.07473 36095 ft 458 kts 257°
2026-04-22 11:38 48.38066 23.98190 36100 ft 458 kts 258°
2026-04-22 11:38 48.35679 23.84328 36095 ft 459 kts 257°
2026-04-22 11:39 48.34075 23.75053 36094 ft 458 kts 257°
2026-04-22 11:39 48.32462 23.65791 36102 ft 458 kts 257°
2026-04-22 11:40 48.30841 23.56529 36100 ft 458 kts 257°
2026-04-22 11:40 48.29210 23.47300 36103 ft 458 kts 257°
2026-04-22 11:41 48.27575 23.38069 36101 ft 457 kts 258°
2026-04-22 11:41 48.25938 23.28843 36092 ft 458 kts 258°
2026-04-22 11:42 48.24290 23.19621 36094 ft 458 kts 257°
2026-04-22 11:42 48.22633 23.10405 36102 ft 457 kts 257°
2026-04-22 11:43 48.20975 23.01198 36100 ft 457 kts 257°
2026-04-22 11:43 48.19309 22.92007 36105 ft 457 kts 256°
2026-04-22 11:44 48.17633 22.82813 36107 ft 457 kts 256°
2026-04-22 11:44 48.15958 22.73671 36099 ft 457 kts 256°
2026-04-22 11:45 48.13430 22.64957 36102 ft 461 kts 236°
2026-04-22 11:45 48.11348 22.61289 36103 ft 463 kts 224°
2026-04-22 11:45 48.08816 22.58305 36101 ft 465 kts 212°
2026-04-22 11:46 48.05930 22.56149 36096 ft 466 kts 200°
2026-04-22 11:46 48.02832 22.54707 36091 ft 466 kts 197°
2026-04-22 11:46 47.96610 22.51937 36098 ft 467 kts 197°
2026-04-22 11:47 47.90371 22.49140 36101 ft 468 kts 198°
2026-04-22 11:47 47.84244 22.45954 36105 ft 466 kts 209°
2026-04-22 11:48 47.79107 22.40241 36106 ft 461 kts 229°
2026-04-22 11:48 47.76083 22.33797 36106 ft 456 kts 246°
2026-04-22 11:49 47.73389 22.25280 36102 ft 456 kts 246°
2026-04-22 11:49 47.70665 22.16782 36113 ft 456 kts 246°
2026-04-22 11:50 47.67929 22.08289 36115 ft 456 kts 246°
2026-04-22 11:50 47.65192 21.99800 36119 ft 456 kts 246°
2026-04-22 11:51 47.62455 21.91319 36122 ft 456 kts 246°
2026-04-22 11:51 47.59711 21.82837 36114 ft 456 kts 246°
2026-04-22 11:52 47.56961 21.74385 36123 ft 456 kts 246°
2026-04-22 11:52 47.54210 21.65934 36126 ft 456 kts 246°
2026-04-22 11:53 47.51446 21.57478 36129 ft 456 kts 246°
2026-04-22 11:53 47.48672 21.49041 36121 ft 456 kts 246°
2026-04-22 11:54 47.45907 21.40658 36123 ft 456 kts 246°
2026-04-22 11:54 47.43124 21.32238 36122 ft 456 kts 246°
2026-04-22 11:55 47.40341 21.23836 36115 ft 456 kts 246°
2026-04-22 11:55 47.37541 21.15428 36127 ft 456 kts 246°
2026-04-22 11:56 47.34731 21.07016 36128 ft 457 kts 246°
2026-04-22 11:56 47.31920 20.98614 36122 ft 457 kts 245°
2026-04-22 11:57 47.29106 20.90221 36129 ft 457 kts 245°
2026-04-22 11:57 47.26282 20.81841 36127 ft 457 kts 245°
2026-04-22 11:58 47.23471 20.73530 36132 ft 457 kts 245°
2026-04-22 11:58 47.20629 20.65173 36133 ft 457 kts 245°
2026-04-22 11:59 47.17787 20.56824 36142 ft 456 kts 245°
2026-04-22 11:59 47.14947 20.48485 36148 ft 456 kts 245°
2026-04-22 12:00 47.12105 20.40170 36155 ft 456 kts 245°
2026-04-22 12:00 47.09251 20.31863 36140 ft 456 kts 245°
2026-04-22 12:01 47.06388 20.23562 36142 ft 456 kts 245°
2026-04-22 12:01 47.03521 20.15272 36146 ft 456 kts 245°
2026-04-22 12:02 47.00651 20.06988 36144 ft 456 kts 245°
2026-04-22 12:02 46.97773 19.98735 36149 ft 456 kts 245°
2026-04-22 12:03 46.94885 19.90458 36147 ft 456 kts 245°
2026-04-22 12:03 46.91994 19.82186 36151 ft 456 kts 245°
2026-04-22 12:04 46.89093 19.73925 36152 ft 456 kts 245°
2026-04-22 12:04 46.86186 19.65673 36163 ft 456 kts 245°
2026-04-22 12:05 46.83275 19.57434 36169 ft 456 kts 245°
2026-04-22 12:05 46.80369 19.49221 36160 ft 456 kts 245°
2026-04-22 12:06 46.77442 19.40997 36159 ft 456 kts 244°
2026-04-22 12:06 46.74515 19.32801 36166 ft 456 kts 244°
2026-04-22 12:07 46.71584 19.24615 36170 ft 456 kts 244°
2026-04-22 12:07 46.68649 19.16430 36172 ft 456 kts 244°
2026-04-22 12:08 46.65714 19.08257 36176 ft 456 kts 244°
2026-04-22 12:08 46.62764 19.00085 36177 ft 455 kts 244°
2026-04-22 12:09 46.59807 18.91939 36173 ft 455 kts 244°
2026-04-22 12:09 46.56866 18.83851 36174 ft 455 kts 244°
2026-04-22 12:10 46.53906 18.75730 36182 ft 455 kts 244°
2026-04-22 12:10 46.50944 18.67610 36184 ft 455 kts 244°
2026-04-22 12:11 46.47972 18.59506 36183 ft 455 kts 245°
2026-04-22 12:11 46.44997 18.51420 36194 ft 454 kts 244°
2026-04-22 12:12 46.42020 18.43344 36200 ft 454 kts 244°
2026-04-22 12:12 46.39034 18.35282 36180 ft 454 kts 245°
2026-04-22 12:13 46.36050 18.27234 36196 ft 454 kts 244°
2026-04-22 12:13 46.33059 18.19191 36196 ft 454 kts 245°
2026-04-22 12:14 46.30067 18.11164 36206 ft 453 kts 245°
2026-04-22 12:14 46.27068 18.03146 36204 ft 453 kts 244°
2026-04-22 12:15 46.24063 17.95139 36221 ft 453 kts 244°
2026-04-22 12:15 46.21049 17.87154 36210 ft 453 kts 244°
2026-04-22 12:16 46.18034 17.79178 36201 ft 452 kts 245°
2026-04-22 12:16 46.15016 17.71207 36218 ft 452 kts 245°
2026-04-22 12:17 46.12001 17.63264 36219 ft 452 kts 244°
2026-04-22 12:17 46.08990 17.55379 36221 ft 452 kts 244°
2026-04-22 12:18 46.05938 17.47394 36221 ft 452 kts 244°
2026-04-22 12:18 46.02916 17.39518 36214 ft 452 kts 243°
2026-04-22 12:19 46.01080 17.35833 36220 ft 456 kts 231°
2026-04-22 12:19 45.98749 17.32715 36224 ft 461 kts 219°
2026-04-22 12:19 45.95991 17.30314 36221 ft 466 kts 207°
2026-04-22 12:19 45.92922 17.28760 36218 ft 470 kts 195°
2026-04-22 12:20 45.86409 17.27502 36209 ft 473 kts 189°
2026-04-22 12:20 45.79875 17.26413 36198 ft 474 kts 189°
2026-04-22 12:21 45.73311 17.25313 36202 ft 474 kts 189°
2026-04-22 12:21 45.66745 17.24201 36206 ft 475 kts 189°
2026-04-22 12:22 45.60180 17.23100 36197 ft 475 kts 190°
2026-04-22 12:22 45.53614 17.22001 36204 ft 475 kts 190°
2026-04-22 12:23 45.47045 17.20908 36206 ft 475 kts 190°
2026-04-22 12:23 45.40485 17.19816 36209 ft 475 kts 190°
2026-04-22 12:24 45.33906 17.18718 36215 ft 475 kts 190°